"datetime","temp","dp","rain_mm","uv","solar","mb","wind_mph","gust_mph","windchill","rh"
"2021-02-21 00:00:00",11.8,8.6,0.0,0.0,0,1003.2,2,3,"",81
"2021-02-21 00:01:00",11.9,8.7,0.0,0.0,0,1003.2,2,3,"",81
"2021-02-21 00:02:00",11.8,8.6,0.0,0.0,0,1003.3,2,4,"",81
"2021-02-21 00:03:00",11.8,8.6,0.0,0.0,0,1003.3,2,4,"",81
"2021-02-21 00:04:00",11.8,8.8,0.0,0.0,0,1003.3,3,5,"",82
"2021-02-21 00:05:00",11.8,8.8,0.0,0.0,0,1003.3,2,3,"",82
"2021-02-21 00:06:00",11.8,8.8,0.0,0.0,0,1003.3,2,3,"",82
"2021-02-21 00:07:00",11.8,8.8,0.0,0.0,0,1003.4,2,3,"",82
"2021-02-21 00:08:00",11.8,8.8,0.0,0.0,0,1003.4,3,5,"",82
"2021-02-21 00:09:00",11.8,8.8,0.0,0.0,0,1003.4,2,5,"",82
"2021-02-21 00:10:00",11.8,8.8,0.0,0.0,0,1003.3,3,4,"",82
"2021-02-21 00:11:00",11.8,9.0,0.0,0.0,0,1003.3,4,5,"",83
"2021-02-21 00:12:00",11.8,9.0,0.0,0.0,0,1003.3,4,7,"",83
"2021-02-21 00:13:00",11.8,9.0,0.0,0.0,0,1003.2,2,4,"",83
"2021-02-21 00:14:00",11.8,9.0,0.0,0.0,0,1003.3,2,5,"",83
"2021-02-21 00:15:00",11.8,9.0,0.0,0.0,0,1003.3,3,5,"",83
"2021-02-21 00:16:00",11.8,9.0,0.0,0.0,0,1003.4,2,4,"",83
"2021-02-21 00:17:00",11.8,9.0,0.0,0.0,0,1003.4,2,4,"",83
"2021-02-21 00:18:00",11.8,9.2,0.0,0.0,0,1003.4,2,4,"",84
"2021-02-21 00:19:00",11.8,9.2,0.0,0.0,0,1003.5,4,7,"",84
"2021-02-21 00:20:00",11.8,9.2,0.0,0.0,0,1003.4,3,5,"",84
"2021-02-21 00:21:00",11.8,9.2,0.0,0.0,0,1003.5,4,7,"",84
"2021-02-21 00:22:00",11.8,9.2,0.0,0.0,0,1003.5,3,4,"",84
"2021-02-21 00:23:00",11.8,9.2,0.0,0.0,0,1003.5,2,3,"",84
"2021-02-21 00:24:00",11.8,9.2,0.0,0.0,0,1003.5,1,1,"",84
"2021-02-21 00:25:00",11.8,9.2,0.0,0.0,0,1003.4,2,5,"",84
"2021-02-21 00:26:00",11.8,9.2,0.0,0.0,0,1003.5,2,7,"",84
"2021-02-21 00:27:00",11.8,9.2,0.0,0.0,0,1003.5,1,3,"",84
"2021-02-21 00:28:00",11.8,9.2,0.0,0.0,0,1003.4,2,3,"",84
"2021-02-21 00:29:00",11.9,9.3,0.0,0.0,0,1003.5,2,3,"",84
"2021-02-21 00:30:00",11.9,9.3,0.0,0.0,0,1003.5,2,3,"",84
"2021-02-21 00:31:00",11.9,9.5,0.0,0.0,0,1003.5,2,4,"",85
"2021-02-21 00:32:00",11.9,9.5,0.0,0.0,0,1003.5,2,6,"",85
"2021-02-21 00:33:00",11.8,9.4,0.0,0.0,0,1003.5,3,6,"",85
"2021-02-21 00:34:00",11.8,9.4,0.0,0.0,0,1003.6,4,5,"",85
"2021-02-21 00:35:00",11.9,9.3,0.0,0.0,0,1003.6,2,4,"",84
"2021-02-21 00:36:00",11.8,9.4,0.0,0.0,0,1003.6,4,7,"",85
"2021-02-21 00:37:00",11.9,9.3,0.0,0.0,0,1003.6,3,4,"",84
"2021-02-21 00:38:00",11.9,9.3,0.0,0.0,0,1003.7,2,4,"",84
"2021-02-21 00:39:00",11.9,9.5,0.0,0.0,0,1003.7,1,3,"",85
"2021-02-21 00:40:00",11.8,9.4,0.0,0.0,0,1003.8,1,2,"",85
"2021-02-21 00:41:00",11.9,9.5,0.0,0.0,0,1003.8,4,8,"",85
"2021-02-21 00:42:00",11.9,9.5,0.0,0.0,0,1003.8,2,4,"",85
"2021-02-21 00:43:00",11.9,9.5,0.0,0.0,0,1003.8,2,4,"",85
"2021-02-21 00:44:00",11.9,9.5,0.0,0.0,0,1003.8,2,3,"",85
"2021-02-21 00:45:00",11.9,9.5,0.0,0.0,0,1003.8,2,4,"",85
"2021-02-21 00:46:00",11.9,9.5,0.0,0.0,0,1003.7,3,8,"",85
"2021-02-21 00:47:00",11.9,9.5,0.0,0.0,0,1003.8,4,7,"",85
"2021-02-21 00:48:00",11.9,9.5,0.0,0.0,0,1003.8,2,3,"",85
"2021-02-21 00:49:00",11.8,9.4,0.0,0.0,0,1003.9,2,3,"",85
"2021-02-21 00:50:00",11.9,9.5,0.0,0.0,0,1003.9,2,3,"",85
"2021-02-21 00:51:00",11.8,9.4,0.0,0.0,0,1003.8,2,3,"",85
"2021-02-21 00:52:00",11.9,9.5,0.0,0.0,0,1003.8,2,5,"",85
"2021-02-21 00:53:00",11.9,9.5,0.0,0.0,0,1003.8,3,5,"",85
"2021-02-21 00:54:00",11.9,9.5,0.0,0.0,0,1003.9,2,3,"",85
"2021-02-21 00:55:00",11.9,9.5,0.0,0.0,0,1003.9,2,4,"",85
"2021-02-21 00:56:00",11.9,9.5,0.0,0.0,0,1003.8,2,6,"",85
"2021-02-21 00:57:00",11.9,9.5,0.0,0.0,0,1003.8,1,2,"",85
"2021-02-21 00:58:00",11.9,9.5,0.0,0.0,0,1003.8,2,3,"",85
"2021-02-21 00:59:00",11.9,9.5,0.0,0.0,0,1003.7,2,3,"",85
"2021-02-21 01:00:00",11.9,9.5,0.0,0.0,0,1003.7,3,4,"",85
"2021-02-21 01:01:00",11.9,9.5,0.0,0.0,0,1003.8,2,4,"",85
"2021-02-21 01:02:00",11.8,9.4,0.0,0.0,0,1003.8,2,3,"",85
"2021-02-21 01:03:00",11.9,9.5,0.0,0.0,0,1003.8,3,5,"",85
"2021-02-21 01:04:00",11.9,9.5,0.0,0.0,0,1003.8,2,4,"",85
"2021-02-21 01:05:00",11.9,9.5,0.0,0.0,0,1003.8,4,6,"",85
"2021-02-21 01:06:00",11.9,9.5,0.0,0.0,0,1003.8,2,3,"",85
"2021-02-21 01:07:00",11.9,9.5,0.0,0.0,0,1003.8,2,3,"",85
"2021-02-21 01:08:00",11.9,9.5,0.0,0.0,0,1003.9,3,4,"",85
"2021-02-21 01:09:00",11.8,9.4,0.0,0.0,0,1003.9,2,3,"",85
"2021-02-21 01:10:00",11.8,9.4,0.0,0.0,0,1003.9,2,5,"",85
"2021-02-21 01:11:00",11.8,9.4,0.0,0.0,0,1003.9,4,5,"",85
"2021-02-21 01:12:00",11.8,9.4,0.0,0.0,0,1003.9,2,5,"",85
"2021-02-21 01:13:00",11.8,9.4,0.0,0.0,0,1003.9,2,3,"",85
"2021-02-21 01:14:00",11.8,9.4,0.0,0.0,0,1003.9,2,2,"",85
"2021-02-21 01:15:00",11.8,9.4,0.0,0.0,0,1003.9,2,3,"",85
"2021-02-21 01:16:00",11.8,9.4,0.0,0.0,0,1003.9,3,6,"",85
"2021-02-21 01:17:00",11.8,9.4,0.0,0.0,0,1003.9,3,5,"",85
"2021-02-21 01:18:00",11.8,9.4,0.0,0.0,0,1003.9,2,5,"",85
"2021-02-21 01:19:00",11.8,9.4,0.0,0.0,0,1003.9,2,3,"",85
"2021-02-21 01:20:00",11.8,9.4,0.0,0.0,0,1004.0,4,6,"",85
"2021-02-21 01:21:00",11.8,9.4,0.0,0.0,0,1004.0,2,5,"",85
"2021-02-21 01:22:00",11.8,9.4,0.0,0.0,0,1004.0,3,5,"",85
"2021-02-21 01:23:00",11.8,9.4,0.0,0.0,0,1004.0,3,5,"",85
"2021-02-21 01:24:00",11.8,9.4,0.0,0.0,0,1004.0,3,6,"",85
"2021-02-21 01:25:00",11.8,9.4,0.0,0.0,0,1004.0,2,5,"",85
"2021-02-21 01:26:00",11.8,9.4,0.0,0.0,0,1004.1,2,4,"",85
"2021-02-21 01:27:00",11.8,9.4,0.0,0.0,0,1004.1,2,5,"",85
"2021-02-21 01:28:00",11.8,9.4,0.0,0.0,0,1004.2,3,5,"",85
"2021-02-21 01:29:00",11.8,9.5,0.0,0.0,0,1004.2,2,4,"",86
"2021-02-21 01:30:00",11.7,9.4,0.0,0.0,0,1004.2,3,4,"",86
"2021-02-21 01:31:00",11.7,9.4,0.0,0.0,0,1004.3,2,4,"",86
"2021-02-21 01:32:00",11.7,9.4,0.0,0.0,0,1004.4,2,3,"",86
"2021-02-21 01:33:00",11.7,9.4,0.0,0.0,0,1004.3,3,4,"",86
"2021-02-21 01:34:00",11.7,9.4,0.0,0.0,0,1004.3,4,7,"",86
"2021-02-21 01:35:00",11.7,9.4,0.0,0.0,0,1004.3,3,5,"",86
"2021-02-21 01:36:00",11.7,9.4,0.0,0.0,0,1004.4,3,4,"",86
"2021-02-21 01:37:00",11.7,9.4,0.0,0.0,0,1004.4,2,4,"",86
"2021-02-21 01:38:00",11.7,9.4,0.0,0.0,0,1004.4,1,2,"",86
"2021-02-21 01:39:00",11.7,9.4,0.0,0.0,0,1004.5,2,4,"",86
"2021-02-21 01:40:00",11.7,9.4,0.0,0.0,0,1004.5,2,4,"",86
"2021-02-21 01:41:00",11.7,9.4,0.0,0.0,0,1004.5,1,2,"",86
"2021-02-21 01:42:00",11.7,9.4,0.0,0.0,0,1004.5,2,2,"",86
"2021-02-21 01:43:00",11.7,9.4,0.0,0.0,0,1004.6,2,4,"",86
"2021-02-21 01:44:00",11.7,9.4,0.0,0.0,0,1004.6,2,3,"",86
"2021-02-21 01:45:00",11.7,9.4,0.0,0.0,0,1004.6,3,4,"",86
"2021-02-21 01:46:00",11.7,9.6,0.0,0.0,0,1004.6,3,5,"",87
"2021-02-21 01:47:00",11.7,9.6,0.0,0.0,0,1004.6,2,4,"",87
"2021-02-21 01:48:00",11.6,9.5,0.2,0.0,0,1004.6,2,3,"",87
"2021-02-21 01:49:00",11.7,9.6,0.2,0.0,0,1004.6,2,3,"",87
"2021-02-21 01:50:00",11.7,9.6,0.2,0.0,0,1004.7,2,4,"",87
"2021-02-21 01:51:00",11.7,9.6,0.2,0.0,0,1004.6,2,4,"",87
"2021-02-21 01:52:00",11.7,9.6,0.2,0.0,0,1004.6,2,3,"",87
"2021-02-21 01:53:00",11.6,9.5,0.2,0.0,0,1004.6,2,4,"",87
"2021-02-21 01:54:00",11.6,9.5,0.2,0.0,0,1004.6,2,4,"",87
"2021-02-21 01:55:00",11.6,9.5,0.2,0.0,0,1004.6,3,5,"",87
"2021-02-21 01:56:00",11.6,9.7,0.2,0.0,0,1004.6,2,3,"",88
"2021-02-21 01:57:00",11.6,9.7,0.2,0.0,0,1004.6,1,2,"",88
"2021-02-21 01:58:00",11.6,9.7,0.2,0.0,0,1004.6,2,3,"",88
"2021-02-21 01:59:00",11.5,9.6,0.2,0.0,0,1004.6,1,3,"",88
"2021-02-21 02:00:00",11.6,9.7,0.2,0.0,0,1004.6,2,3,"",88
"2021-02-21 02:01:00",11.6,9.7,0.2,0.0,0,1004.6,1,3,"",88
"2021-02-21 02:02:00",11.5,9.6,0.2,0.0,0,1004.6,1,2,"",88
"2021-02-21 02:03:00",11.5,9.6,0.2,0.0,0,1004.6,1,2,"",88
"2021-02-21 02:04:00",11.5,9.6,0.2,0.0,0,1004.6,2,4,"",88
"2021-02-21 02:05:00",11.5,9.6,0.2,0.0,0,1004.6,1,3,"",88
"2021-02-21 02:06:00",11.4,9.5,0.2,0.0,0,1004.6,1,3,"",88
"2021-02-21 02:07:00",11.5,9.6,0.2,0.0,0,1004.6,1,2,"",88
"2021-02-21 02:08:00",11.4,9.7,0.2,0.0,0,1004.6,2,4,"",89
"2021-02-21 02:09:00",11.4,9.7,0.2,0.0,0,1004.6,2,4,"",89
"2021-02-21 02:10:00",11.4,9.7,0.2,0.0,0,1004.6,1,2,"",89
"2021-02-21 02:11:00",11.4,9.5,0.2,0.0,0,1004.6,1,2,"",88
"2021-02-21 02:12:00",11.4,9.7,0.2,0.0,0,1004.5,1,2,"",89
"2021-02-21 02:13:00",11.4,9.5,0.2,0.0,0,1004.5,1,2,"",88
"2021-02-21 02:14:00",11.4,9.7,0.2,0.0,0,1004.5,1,3,"",89
"2021-02-21 02:15:00",11.3,9.4,0.2,0.0,0,1004.5,2,3,"",88
"2021-02-21 02:16:00",11.3,9.6,0.2,0.0,0,1004.5,2,3,"",89
"2021-02-21 02:17:00",11.3,9.6,0.2,0.0,0,1004.4,3,5,"",89
"2021-02-21 02:18:00",11.3,9.6,0.2,0.0,0,1004.4,2,3,"",89
"2021-02-21 02:19:00",11.3,9.6,0.2,0.0,0,1004.4,2,3,"",89
"2021-02-21 02:20:00",11.3,9.7,0.2,0.0,0,1004.4,1,2,"",90
"2021-02-21 02:21:00",11.3,9.7,0.2,0.0,0,1004.5,0,1,"",90
"2021-02-21 02:22:00",11.3,9.6,0.2,0.0,0,1004.5,1,2,"",89
"2021-02-21 02:23:00",11.2,9.5,0.2,0.0,0,1004.4,1,3,"",89
"2021-02-21 02:24:00",11.2,9.5,0.2,0.0,0,1004.5,0,1,"",89
"2021-02-21 02:25:00",11.2,9.5,0.2,0.0,0,1004.4,1,2,"",89
"2021-02-21 02:26:00",11.2,9.5,0.2,0.0,0,1004.4,1,3,"",89
"2021-02-21 02:27:00",11.2,9.5,0.2,0.0,0,1004.4,1,2,"",89
"2021-02-21 02:28:00",11.2,9.5,0.2,0.0,0,1004.5,1,2,"",89
"2021-02-21 02:29:00",11.2,9.5,0.2,0.0,0,1004.4,1,2,"",89
"2021-02-21 02:30:00",11.1,9.4,0.2,0.0,0,1004.4,1,2,"",89
"2021-02-21 02:31:00",11.1,9.4,0.2,0.0,0,1004.5,2,4,"",89
"2021-02-21 02:32:00",11.1,9.4,0.2,0.0,0,1004.6,2,3,"",89
"2021-02-21 02:33:00",11.1,9.4,0.2,0.0,0,1004.6,2,4,"",89
"2021-02-21 02:34:00",11.1,9.4,0.2,0.0,0,1004.6,2,3,"",89
"2021-02-21 02:35:00",11.1,9.4,0.2,0.0,0,1004.6,2,4,"",89
"2021-02-21 02:36:00",11.1,9.4,0.2,0.0,0,1004.6,1,2,"",89
"2021-02-21 02:37:00",11.1,9.4,0.2,0.0,0,1004.6,0,2,"",89
"2021-02-21 02:38:00",11.0,9.3,0.2,0.0,0,1004.6,1,2,"",89
"2021-02-21 02:39:00",11.0,9.4,0.2,0.0,0,1004.6,3,4,"",90
"2021-02-21 02:40:00",11.0,9.4,0.2,0.0,0,1004.6,2,3,"",90
"2021-02-21 02:41:00",10.9,9.3,0.4,0.0,0,1004.6,3,5,"",90
"2021-02-21 02:42:00",10.9,9.3,0.4,0.0,0,1004.6,2,4,"",90
"2021-02-21 02:43:00",10.9,9.5,0.4,0.0,0,1004.6,2,3,"",91
"2021-02-21 02:44:00",10.9,9.3,0.4,0.0,0,1004.6,3,5,"",90
"2021-02-21 02:45:00",10.9,9.3,0.4,0.0,0,1004.6,2,3,"",90
"2021-02-21 02:46:00",10.9,9.3,0.4,0.0,0,1004.6,3,5,"",90
"2021-02-21 02:47:00",10.9,9.5,0.4,0.0,0,1004.6,2,4,"",91
"2021-02-21 02:48:00",10.9,9.5,0.4,0.0,0,1004.6,1,2,"",91
"2021-02-21 02:49:00",10.9,9.5,0.4,0.0,0,1004.6,1,3,"",91
"2021-02-21 02:50:00",10.8,9.4,0.4,0.0,0,1004.7,1,2,"",91
"2021-02-21 02:51:00",10.8,9.4,0.4,0.0,0,1004.6,2,4,"",91
"2021-02-21 02:52:00",10.8,9.4,0.4,0.0,0,1004.7,1,2,"",91
"2021-02-21 02:53:00",10.8,9.4,0.4,0.0,0,1004.7,1,1,"",91
"2021-02-21 02:54:00",10.8,9.4,0.4,0.0,0,1004.7,1,2,"",91
"2021-02-21 02:55:00",10.8,9.4,0.4,0.0,0,1004.7,4,7,"",91
"2021-02-21 02:56:00",10.8,9.4,0.4,0.0,0,1004.7,2,3,"",91
"2021-02-21 02:57:00",10.8,9.4,0.4,0.0,0,1004.7,0,1,"",91
"2021-02-21 02:58:00",10.8,9.4,0.4,0.0,0,1004.7,2,2,"",91
"2021-02-21 02:59:00",10.8,9.4,0.4,0.0,0,1004.7,3,5,"",91
"2021-02-21 03:00:00",10.8,9.4,0.4,0.0,0,1004.7,1,2,"",91
"2021-02-21 03:01:00",10.8,9.4,0.4,0.0,0,1004.7,2,3,"",91
"2021-02-21 03:02:00",10.8,9.4,0.4,0.0,0,1004.7,2,3,"",91
"2021-02-21 03:03:00",10.8,9.6,0.4,0.0,0,1004.7,1,3,"",92
"2021-02-21 03:04:00",10.7,9.3,0.4,0.0,0,1004.7,2,3,"",91
"2021-02-21 03:05:00",10.7,9.3,0.6,0.0,0,1004.7,1,2,"",91
"2021-02-21 03:06:00",10.7,9.3,0.6,0.0,0,1004.7,2,5,"",91
"2021-02-21 03:07:00",10.7,9.3,0.6,0.0,0,1004.8,1,3,"",91
"2021-02-21 03:08:00",10.7,9.3,0.6,0.0,0,1004.8,1,2,"",91
"2021-02-21 03:09:00",10.7,9.3,0.6,0.0,0,1004.8,1,3,"",91
"2021-02-21 03:10:00",10.7,9.3,0.6,0.0,0,1004.8,1,2,"",91
"2021-02-21 03:11:00",10.7,9.3,0.6,0.0,0,1004.8,1,2,"",91
"2021-02-21 03:12:00",10.7,9.3,0.6,0.0,0,1004.9,2,4,"",91
"2021-02-21 03:13:00",10.7,9.5,0.6,0.0,0,1004.9,2,3,"",92
"2021-02-21 03:14:00",10.7,9.3,0.6,0.0,0,1004.9,1,2,"",91
"2021-02-21 03:15:00",10.6,9.2,0.6,0.0,0,1004.9,1,2,"",91
"2021-02-21 03:16:00",10.7,9.3,0.6,0.0,0,1004.9,1,2,"",91
"2021-02-21 03:17:00",10.7,9.3,0.8,0.0,0,1004.9,1,2,"",91
"2021-02-21 03:18:00",10.7,9.3,0.8,0.0,0,1004.9,1,2,"",91
"2021-02-21 03:19:00",10.6,9.2,0.8,0.0,0,1004.9,2,3,"",91
"2021-02-21 03:20:00",10.6,9.2,0.8,0.0,0,1004.8,2,3,"",91
"2021-02-21 03:21:00",10.6,9.2,0.8,0.0,0,1004.9,1,2,"",91
"2021-02-21 03:22:00",10.6,9.2,0.8,0.0,0,1004.9,2,2,"",91
"2021-02-21 03:23:00",10.6,9.2,0.8,0.0,0,1004.9,2,3,"",91
"2021-02-21 03:24:00",10.6,9.4,0.8,0.0,0,1004.9,2,3,"",92
"2021-02-21 03:25:00",10.6,9.4,0.8,0.0,0,1004.9,2,3,"",92
"2021-02-21 03:26:00",10.6,9.4,0.8,0.0,0,1004.9,2,4,"",92
"2021-02-21 03:27:00",10.6,9.4,0.8,0.0,0,1004.9,1,2,"",92
"2021-02-21 03:28:00",10.6,9.4,0.8,0.0,0,1004.9,1,2,"",92
"2021-02-21 03:29:00",10.6,9.4,0.8,0.0,0,1005.0,3,4,"",92
"2021-02-21 03:30:00",10.5,9.3,0.8,0.0,0,1005.0,3,4,"",92
"2021-02-21 03:31:00",10.5,9.3,0.8,0.0,0,1005.0,1,2,"",92
"2021-02-21 03:32:00",10.5,9.3,0.8,0.0,0,1005.0,1,3,"",92
"2021-02-21 03:33:00",10.5,9.3,0.8,0.0,0,1005.0,2,3,"",92
"2021-02-21 03:34:00",10.5,9.3,0.8,0.0,0,1005.0,3,3,"",92
"2021-02-21 03:35:00",10.5,9.3,0.8,0.0,0,1005.0,1,3,"",92
"2021-02-21 03:36:00",10.5,9.3,0.8,0.0,0,1005.1,1,2,"",92
"2021-02-21 03:37:00",10.5,9.3,1.0,0.0,0,1005.1,3,5,"",92
"2021-02-21 03:38:00",10.5,9.4,1.0,0.0,0,1005.1,2,3,"",93
"2021-02-21 03:39:00",10.5,9.3,1.0,0.0,0,1005.1,2,3,"",92
"2021-02-21 03:40:00",10.5,9.3,1.0,0.0,0,1005.1,1,3,"",92
"2021-02-21 03:41:00",10.5,9.3,1.0,0.0,0,1005.1,1,3,"",92
"2021-02-21 03:42:00",10.4,9.2,1.0,0.0,0,1005.0,1,2,"",92
"2021-02-21 03:43:00",10.4,9.2,1.0,0.0,0,1005.1,0,1,"",92
"2021-02-21 03:44:00",10.4,9.2,1.0,0.0,0,1005.1,1,2,"",92
"2021-02-21 03:45:00",10.4,9.2,1.0,0.0,0,1005.1,2,4,"",92
"2021-02-21 03:46:00",10.4,9.2,1.0,0.0,0,1005.0,2,3,"",92
"2021-02-21 03:47:00",10.4,9.2,1.0,0.0,0,1005.0,2,3,"",92
"2021-02-21 03:48:00",10.4,9.3,1.0,0.0,0,1005.0,2,3,"",93
"2021-02-21 03:49:00",10.4,9.3,1.0,0.0,0,1005.1,1,2,"",93
"2021-02-21 03:50:00",10.4,9.2,1.0,0.0,0,1005.0,1,2,"",92
"2021-02-21 03:51:00",10.4,9.3,1.0,0.0,0,1005.0,1,3,"",93
"2021-02-21 03:52:00",10.4,9.2,1.0,0.0,0,1005.0,1,4,"",92
"2021-02-21 03:53:00",10.4,9.2,1.0,0.0,0,1005.0,0,1,"",92
"2021-02-21 03:54:00",10.3,9.1,1.0,0.0,0,1005.0,1,1,"",92
"2021-02-21 03:55:00",10.3,9.1,1.0,0.0,0,1005.1,2,2,"",92
"2021-02-21 03:56:00",10.3,9.2,1.0,0.0,0,1005.1,1,3,"",93
"2021-02-21 03:57:00",10.3,9.2,1.0,0.0,0,1005.1,1,3,"",93
"2021-02-21 03:58:00",10.3,9.1,1.0,0.0,0,1005.1,1,2,"",92
"2021-02-21 03:59:00",10.3,9.1,1.0,0.0,0,1005.1,1,3,"",92
"2021-02-21 04:00:00",10.3,9.2,1.0,0.0,0,1005.0,3,4,"",93
"2021-02-21 04:01:00",10.3,9.1,1.0,0.0,0,1005.0,1,2,"",92
"2021-02-21 04:02:00",10.3,9.1,1.0,0.0,0,1005.1,1,2,"",92
"2021-02-21 04:03:00",10.3,9.1,1.0,0.0,0,1005.1,1,1,"",92
"2021-02-21 04:04:00",10.3,9.1,1.0,0.0,0,1005.1,1,2,"",92
"2021-02-21 04:05:00",10.3,9.1,1.0,0.0,0,1005.2,1,2,"",92
"2021-02-21 04:06:00",10.2,9.0,1.0,0.0,0,1005.2,2,3,"",92
"2021-02-21 04:07:00",10.3,9.1,1.0,0.0,0,1005.2,2,3,"",92
"2021-02-21 04:08:00",10.2,9.0,1.0,0.0,0,1005.1,1,2,"",92
"2021-02-21 04:09:00",10.2,9.0,1.0,0.0,0,1005.2,1,2,"",92
"2021-02-21 04:10:00",10.2,9.0,1.0,0.0,0,1005.2,1,2,"",92
"2021-02-21 04:11:00",10.2,9.0,1.0,0.0,0,1005.2,2,4,"",92
"2021-02-21 04:12:00",10.2,9.0,1.0,0.0,0,1005.2,1,2,"",92
"2021-02-21 04:13:00",10.2,9.0,1.0,0.0,0,1005.2,1,2,"",92
"2021-02-21 04:14:00",10.2,9.0,1.0,0.0,0,1005.2,1,2,"",92
"2021-02-21 04:15:00",10.2,9.0,1.0,0.0,0,1005.1,2,4,"",92
"2021-02-21 04:16:00",10.2,9.0,1.0,0.0,0,1005.1,1,2,"",92
"2021-02-21 04:17:00",10.2,9.0,1.0,0.0,0,1005.0,0,1,"",92
"2021-02-21 04:18:00",10.2,9.0,1.0,0.0,0,1005.1,0,1,"",92
"2021-02-21 04:19:00",10.2,9.1,1.0,0.0,0,1005.1,1,2,"",93
"2021-02-21 04:20:00",10.1,8.9,1.0,0.0,0,1005.1,1,3,"",92
"2021-02-21 04:21:00",10.2,9.1,1.0,0.0,0,1005.2,1,3,"",93
"2021-02-21 04:22:00",10.2,9.1,1.0,0.0,0,1005.2,1,2,"",93
"2021-02-21 04:23:00",10.2,9.1,1.0,0.0,0,1005.2,0,1,"",93
"2021-02-21 04:24:00",10.1,9.0,1.0,0.0,0,1005.2,0,1,"",93
"2021-02-21 04:25:00",10.1,9.0,1.0,0.0,0,1005.2,1,2,"",93
"2021-02-21 04:26:00",10.1,9.0,1.0,0.0,0,1005.2,1,2,"",93
"2021-02-21 04:27:00",10.1,9.0,1.0,0.0,0,1005.2,1,2,"",93
"2021-02-21 04:28:00",10.1,9.0,1.0,0.0,0,1005.3,1,2,"",93
"2021-02-21 04:29:00",10.1,9.0,1.0,0.0,0,1005.3,0,1,"",93
"2021-02-21 04:30:00",10.1,9.0,1.0,0.0,0,1005.4,1,2,"",93
"2021-02-21 04:31:00",10.1,9.0,1.0,0.0,0,1005.4,1,2,"",93
"2021-02-21 04:32:00",10.1,9.0,1.0,0.0,0,1005.4,1,2,"",93
"2021-02-21 04:33:00",10.1,9.0,1.0,0.0,0,1005.4,1,2,"",93
"2021-02-21 04:34:00",10.1,9.0,1.0,0.0,0,1005.5,1,2,"",93
"2021-02-21 04:35:00",10.1,9.2,1.0,0.0,0,1005.5,1,2,"",94
"2021-02-21 04:36:00",10.1,9.2,1.0,0.0,0,1005.5,1,2,"",94
"2021-02-21 04:37:00",10.1,9.0,1.0,0.0,0,1005.5,1,2,"",93
"2021-02-21 04:38:00",10.1,9.0,1.0,0.0,0,1005.5,1,1,"",93
"2021-02-21 04:39:00",10.1,9.0,1.0,0.0,0,1005.5,1,2,"",93
"2021-02-21 04:40:00",10.1,9.0,1.0,0.0,0,1005.6,0,1,"",93
"2021-02-21 04:41:00",10.1,9.2,1.0,0.0,0,1005.6,0,1,"",94
"2021-02-21 04:42:00",10.1,9.2,1.0,0.0,0,1005.5,0,1,"",94
"2021-02-21 04:43:00",10.1,9.2,1.0,0.0,0,1005.6,0,1,"",94
"2021-02-21 04:44:00",10.1,9.0,1.0,0.0,0,1005.6,0,1,"",93
"2021-02-21 04:45:00",10.1,9.0,1.0,0.0,0,1005.6,1,2,"",93
"2021-02-21 04:46:00",10.1,9.2,1.0,0.0,0,1005.7,0,2,"",94
"2021-02-21 04:47:00",10.1,9.2,1.0,0.0,0,1005.7,1,2,"",94
"2021-02-21 04:48:00",10.1,9.2,1.0,0.0,0,1005.7,1,2,"",94
"2021-02-21 04:49:00",10.1,9.2,1.0,0.0,0,1005.7,1,2,"",94
"2021-02-21 04:50:00",10.1,9.2,1.0,0.0,0,1005.7,0,1,"",94
"2021-02-21 04:51:00",10.1,9.0,1.2,0.0,0,1005.7,0,0,"",93
"2021-02-21 04:52:00",10.1,9.2,1.2,0.0,0,1005.7,0,0,"",94
"2021-02-21 04:53:00",10.1,9.2,1.2,0.0,0,1005.7,0,0,"",94
"2021-02-21 04:54:00",10.1,9.0,1.2,0.0,0,1005.7,0,0,"",93
"2021-02-21 04:55:00",10.1,9.2,1.2,0.0,0,1005.7,0,0,"",94
"2021-02-21 04:56:00",10.1,9.0,1.2,0.0,0,1005.7,0,1,"",93
"2021-02-21 04:57:00",10.1,9.0,1.2,0.0,0,1005.6,0,1,"",93
"2021-02-21 04:58:00",10.1,9.2,1.2,0.0,0,1005.6,1,1,"",94
"2021-02-21 04:59:00",10.1,9.2,1.2,0.0,0,1005.5,0,0,"",94
"2021-02-21 05:00:00",10.1,9.0,1.2,0.0,0,1005.6,1,2,"",93
"2021-02-21 05:01:00",10.1,9.0,1.2,0.0,0,1005.6,1,2,"",93
"2021-02-21 05:02:00",10.0,8.9,1.2,0.0,0,1005.5,1,2,"",93
"2021-02-21 05:03:00",10.1,9.0,1.2,0.0,0,1005.6,0,1,"",93
"2021-02-21 05:04:00",10.0,8.9,1.2,0.0,0,1005.5,0,0,"",93
"2021-02-21 05:05:00",10.0,8.9,1.2,0.0,0,1005.6,1,1,"",93
"2021-02-21 05:06:00",10.1,9.0,1.2,0.0,0,1005.5,0,1,"",93
"2021-02-21 05:07:00",10.0,8.9,1.2,0.0,0,1005.6,1,1,"",93
"2021-02-21 05:08:00",10.0,9.1,1.2,0.0,0,1005.5,1,2,"",94
"2021-02-21 05:09:00",10.0,8.9,1.2,0.0,0,1005.5,1,1,"",93
"2021-02-21 05:10:00",10.0,9.1,1.2,0.0,0,1005.5,1,1,"",94
"2021-02-21 05:11:00",10.0,9.1,1.2,0.0,0,1005.5,1,2,"",94
"2021-02-21 05:12:00",10.0,9.1,1.2,0.0,0,1005.6,1,1,"",94
"2021-02-21 05:13:00",10.0,8.9,1.2,0.0,0,1005.6,1,2,"",93
"2021-02-21 05:14:00",10.0,8.9,1.2,0.0,0,1005.6,1,2,"",93
"2021-02-21 05:15:00",9.9,8.8,1.2,0.0,0,1005.5,1,1,"",93
"2021-02-21 05:16:00",9.9,8.8,1.2,0.0,0,1005.5,0,1,"",93
"2021-02-21 05:17:00",10.0,8.9,1.2,0.0,0,1005.5,1,1,"",93
"2021-02-21 05:18:00",9.9,9.0,1.2,0.0,0,1005.6,1,3,"",94
"2021-02-21 05:19:00",9.9,9.0,1.2,0.0,0,1005.6,1,2,"",94
"2021-02-21 05:20:00",9.9,9.0,1.2,0.0,0,1005.6,1,2,"",94
"2021-02-21 05:21:00",9.9,9.0,1.2,0.0,0,1005.7,1,2,"",94
"2021-02-21 05:22:00",9.9,8.8,1.2,0.0,0,1005.7,1,2,"",93
"2021-02-21 05:23:00",9.9,8.8,1.2,0.0,0,1005.7,1,2,"",93
"2021-02-21 05:24:00",9.9,8.8,1.2,0.0,0,1005.7,1,2,"",93
"2021-02-21 05:25:00",9.9,8.8,1.2,0.0,0,1005.7,2,4,9.2,93
"2021-02-21 05:26:00",9.9,8.8,1.2,0.0,0,1005.8,1,2,"",93
"2021-02-21 05:27:00",9.9,8.8,1.2,0.0,0,1005.8,1,2,"",93
"2021-02-21 05:28:00",9.9,8.8,1.2,0.0,0,1005.7,0,1,"",93
"2021-02-21 05:29:00",9.9,8.8,1.2,0.0,0,1005.7,1,2,"",93
"2021-02-21 05:30:00",9.9,8.8,1.2,0.0,0,1005.8,1,2,"",93
"2021-02-21 05:31:00",9.9,8.8,1.2,0.0,0,1005.7,1,2,"",93
"2021-02-21 05:32:00",9.9,8.8,1.2,0.0,0,1005.8,1,2,"",93
"2021-02-21 05:33:00",9.9,9.0,1.2,0.0,0,1005.8,0,0,"",94
"2021-02-21 05:34:00",9.9,9.0,1.2,0.0,0,1005.7,1,1,"",94
"2021-02-21 05:35:00",9.8,8.7,1.2,0.0,0,1005.7,1,1,"",93
"2021-02-21 05:36:00",9.8,8.7,1.2,0.0,0,1005.8,1,1,"",93
"2021-02-21 05:37:00",9.8,8.7,1.2,0.0,0,1005.8,1,1,"",93
"2021-02-21 05:38:00",9.8,8.7,1.2,0.0,0,1005.8,1,3,"",93
"2021-02-21 05:39:00",9.9,8.8,1.2,0.0,0,1005.8,1,3,"",93
"2021-02-21 05:40:00",9.8,8.9,1.2,0.0,0,1005.8,1,2,"",94
"2021-02-21 05:41:00",9.8,8.9,1.2,0.0,0,1005.9,1,2,"",94
"2021-02-21 05:42:00",9.8,8.9,1.2,0.0,0,1005.9,1,2,"",94
"2021-02-21 05:43:00",9.8,8.9,1.2,0.0,0,1005.9,0,1,"",94
"2021-02-21 05:44:00",9.8,8.9,1.2,0.0,0,1005.9,1,2,"",94
"2021-02-21 05:45:00",9.8,8.9,1.2,0.0,0,1005.9,1,3,"",94
"2021-02-21 05:46:00",9.8,8.9,1.2,0.0,0,1005.9,1,2,"",94
"2021-02-21 05:47:00",9.8,8.9,1.2,0.0,0,1005.9,1,2,"",94
"2021-02-21 05:48:00",9.8,8.9,1.2,0.0,0,1005.9,0,1,"",94
"2021-02-21 05:49:00",9.8,8.9,1.2,0.0,0,1005.9,0,1,"",94
"2021-02-21 05:50:00",9.8,8.9,1.2,0.0,0,1006.0,1,2,"",94
"2021-02-21 05:51:00",9.8,8.9,1.2,0.0,0,1005.9,1,2,"",94
"2021-02-21 05:52:00",9.8,8.9,1.2,0.0,0,1006.0,1,3,"",94
"2021-02-21 05:53:00",9.8,8.9,1.2,0.0,0,1005.9,1,2,"",94
"2021-02-21 05:54:00",9.8,8.9,1.2,0.0,0,1006.0,1,1,"",94
"2021-02-21 05:55:00",9.8,8.9,1.2,0.0,0,1006.0,1,2,"",94
"2021-02-21 05:56:00",9.8,8.9,1.2,0.0,0,1006.0,1,2,"",94
"2021-02-21 05:57:00",9.8,8.9,1.2,0.0,0,1005.9,0,1,"",94
"2021-02-21 05:58:00",9.8,8.9,1.2,0.0,0,1005.9,0,1,"",94
"2021-02-21 05:59:00",9.8,8.9,1.2,0.0,0,1006.0,1,2,"",94
"2021-02-21 06:00:00",9.8,8.9,1.2,0.0,0,1006.0,1,1,"",94
"2021-02-21 06:01:00",9.8,8.9,1.2,0.0,0,1005.9,0,2,"",94
"2021-02-21 06:02:00",9.8,8.9,1.2,0.0,0,1005.9,1,1,"",94
"2021-02-21 06:03:00",9.8,8.9,1.2,0.0,0,1005.9,0,1,"",94
"2021-02-21 06:04:00",9.8,8.9,1.2,0.0,0,1005.9,0,1,"",94
"2021-02-21 06:05:00",9.7,8.8,1.2,0.0,0,1005.9,0,2,"",94
"2021-02-21 06:06:00",9.8,8.9,1.4,0.0,0,1005.8,0,1,"",94
"2021-02-21 06:07:00",9.8,8.9,1.4,0.0,0,1005.8,0,0,"",94
"2021-02-21 06:08:00",9.8,8.9,1.4,0.0,0,1005.8,0,0,"",94
"2021-02-21 06:09:00",9.8,8.9,1.4,0.0,0,1005.8,0,0,"",94
"2021-02-21 06:10:00",9.8,8.9,1.4,0.0,0,1005.8,0,1,"",94
"2021-02-21 06:11:00",9.8,8.9,1.4,0.0,0,1005.8,0,1,"",94
"2021-02-21 06:12:00",9.8,8.9,1.4,0.0,0,1005.8,1,1,"",94
"2021-02-21 06:13:00",9.8,8.9,1.4,0.0,0,1005.8,1,1,"",94
"2021-02-21 06:14:00",9.7,8.8,1.4,0.0,0,1005.8,1,2,"",94
"2021-02-21 06:15:00",9.7,8.8,1.4,0.0,0,1005.8,1,2,"",94
"2021-02-21 06:16:00",9.7,8.8,1.4,0.0,0,1005.8,0,1,"",94
"2021-02-21 06:17:00",9.8,8.9,1.4,0.0,0,1005.8,0,1,"",94
"2021-02-21 06:18:00",9.7,8.8,1.4,0.0,0,1005.7,0,1,"",94
"2021-02-21 06:19:00",9.8,8.9,1.4,0.0,0,1005.8,0,1,"",94
"2021-02-21 06:20:00",9.7,8.8,1.4,0.0,0,1005.8,0,1,"",94
"2021-02-21 06:21:00",9.7,8.8,1.4,0.0,0,1005.8,1,2,"",94
"2021-02-21 06:22:00",9.7,8.8,1.4,0.0,0,1005.7,1,2,"",94
"2021-02-21 06:23:00",9.7,8.8,1.4,0.0,0,1005.8,1,2,"",94
"2021-02-21 06:24:00",9.8,8.9,1.4,0.0,0,1005.8,1,2,"",94
"2021-02-21 06:25:00",9.7,8.8,1.4,0.0,0,1005.8,1,2,"",94
"2021-02-21 06:26:00",9.7,8.8,1.4,0.0,0,1005.8,1,2,"",94
"2021-02-21 06:27:00",9.7,8.8,1.4,0.0,0,1005.8,1,2,"",94
"2021-02-21 06:28:00",9.7,8.8,1.4,0.0,0,1005.8,1,2,"",94
"2021-02-21 06:29:00",9.7,8.8,1.4,0.0,0,1005.8,1,2,"",94
"2021-02-21 06:30:00",9.7,8.8,1.4,0.0,0,1005.8,1,3,"",94
"2021-02-21 06:31:00",9.7,8.8,1.4,0.0,0,1005.8,1,1,"",94
"2021-02-21 06:32:00",9.7,8.8,1.4,0.0,0,1005.8,1,1,"",94
"2021-02-21 06:33:00",9.7,8.8,1.4,0.0,0,1005.8,0,1,"",94
"2021-02-21 06:34:00",9.7,8.8,1.4,0.0,0,1005.8,0,1,"",94
"2021-02-21 06:35:00",9.7,8.8,1.4,0.0,0,1005.9,1,2,"",94
"2021-02-21 06:36:00",9.7,8.8,1.4,0.0,0,1005.9,1,1,"",94
"2021-02-21 06:37:00",9.7,8.8,1.4,0.0,0,1005.9,1,1,"",94
"2021-02-21 06:38:00",9.7,8.8,1.4,0.0,0,1005.9,1,1,"",94
"2021-02-21 06:39:00",9.7,8.8,1.4,0.0,0,1006.0,0,1,"",94
"2021-02-21 06:40:00",9.7,8.8,1.4,0.0,0,1006.0,1,1,"",94
"2021-02-21 06:41:00",9.7,8.8,1.4,0.0,0,1006.0,0,1,"",94
"2021-02-21 06:42:00",9.6,8.7,1.4,0.0,0,1006.0,1,2,"",94
"2021-02-21 06:43:00",9.7,8.8,1.4,0.0,0,1006.1,1,2,"",94
"2021-02-21 06:44:00",9.6,8.7,1.4,0.0,0,1006.1,0,1,"",94
"2021-02-21 06:45:00",9.7,8.8,1.4,0.0,0,1006.1,1,1,"",94
"2021-02-21 06:46:00",9.6,8.7,1.4,0.0,0,1006.1,1,2,"",94
"2021-02-21 06:47:00",9.7,8.8,1.4,0.0,0,1006.1,1,2,"",94
"2021-02-21 06:48:00",9.6,8.7,1.4,0.0,0,1006.2,1,2,"",94
"2021-02-21 06:49:00",9.6,8.7,1.4,0.0,0,1006.2,1,2,"",94
"2021-02-21 06:50:00",9.7,8.8,1.4,0.0,0,1006.2,1,1,"",94
"2021-02-21 06:51:00",9.7,8.8,1.4,0.0,0,1006.2,1,1,"",94
"2021-02-21 06:52:00",9.6,8.7,1.4,0.0,0,1006.2,0,1,"",94